W2PJ Weather Reports


Display with metric or nautical units.
time (UTC)temp
F
wind
direction
speed
MPH
gust
MPH
rain 1hr
in
rain 24hr
in
rain mn
in
humidity
%
barometer
mb
20260506012531 48 22 0.0 1.0 0.01 0.10 0.10 87 1008.7
20260506012047 49 328 0.0 2.0 0.01 0.10 0.10 85 1008.8
20260506011501 50 13 0.0 4.0 0.00 0.09 0.09 82 1008.8
20260506011018 51 295 0.0 7.0 0.00 0.09 0.09 80 1008.8
20260506010536 51 255 0.0 7.0 0.00 0.09 0.09 78 1008.6
20260506010014 52 306 0.0 4.0 0.00 0.09 0.09 77 1008.1
20260506005530 53 259 0.0 4.0 0.00 0.09 0.09 76 1008.1
20260506005048 53 316 0.0 3.0 0.00 0.09 0.09 77 1008.2
20260506004509 53 309 0.0 6.0 0.00 0.09 0.09 76 1008.0
20260506004025 53 309 0.0 6.0 0.00 0.09 0.09 77 1008.3
20260506003539 53 314 0.0 4.0 0.00 0.09 0.09 77 1008.0
20260506003016 54 327 0.0 1.0 0.00 0.09 0.09 77 1007.8
20260506002530 54 331 0.0 1.0 0.00 0.09 0.09 77 1007.7
20260506002046 54 272 0.0 8.0 0.00 0.09 0.09 77 1007.8
20260506001515 54 305 0.0 8.0 0.00 0.09 0.09 77 1007.9
20260506001029 55 291 0.0 2.0 0.00 0.09 0.09 78 1007.8
20260506000545 55 279 0.0 7.0 0.00 0.09 0.09 78 1007.6
20260506000038 55 48 0.0 7.0 0.00 0.09 0.09 78 1007.3
20260505235534 55 309 0.0 8.0 0.00 0.09 0.09 78 1007.1
20260505235053 55 342 0.0 8.0 0.00 0.09 0.09 78 1006.9
20260505234520 56 342 0.0 11.0 0.00 0.09 0.09 78 1006.7
20260505234027 56 304 0.0 10.0 0.00 0.09 0.09 79 1006.7
20260505233542 56 46 0.0 6.0 0.00 0.09 0.09 83 1006.4
20260505233120 56 317 0.0 0.0 0.00 0.09 0.09 86 1006.3
20260505232513 57 359 0.0 0.0 0.00 0.09 0.09 86 1006.1
20260505232033 57 41 0.0 0.0 0.00 0.09 0.09 86 1006.0
20260505231509 57 38 0.0 0.0 0.00 0.09 0.09 87 1005.9
20260505231031 57 337 0.0 0.0 0.00 0.09 0.09 88 1005.9
20260505230546 57 5 0.0 0.0 0.00 0.09 0.09 88 1005.7
20260505230047 58 355 0.0 0.0 0.00 0.09 0.09 88 1005.8
20260505225545 58 6 0.0 0.0 0.00 0.09 0.09 88 1005.7
20260505225059 58 301 0.0 0.0 0.00 0.09 0.09 88 1005.7
20260505224607 58 331 0.0 0.0 0.00 0.09 0.09 87 1005.7
20260505224020 59 27 0.0 0.0 0.00 0.09 0.09 87 1005.4
20260505223546 59 354 0.0 0.0 0.00 0.09 0.09 88 1005.2
20260505223026 60 133 0.0 4.0 0.00 0.09 0.09 88 1005.1
20260505222544 60 59 0.0 4.0 0.00 0.09 0.09 88 1004.9
20260505222057 61 9 0.0 4.0 0.00 0.09 0.09 88 1004.7
20260505221505 62 339 0.0 0.0 0.00 0.09 0.09 89 1004.7
20260505221019 62 323 0.0 0.0 0.00 0.09 0.09 89 1004.8
20260505220539 62 54 0.0 0.0 0.02 0.09 0.09 90 1004.5
20260505220010 62 294 0.0 0.0 0.02 0.09 0.09 90 1004.3
20260505215526 61 268 0.0 0.0 0.02 0.09 0.09 90 1004.3
20260505215042 61 269 0.0 0.0 0.02 0.09 0.09 90 1004.4
20260505214611 61 268 0.0 0.0 0.03 0.09 0.09 89 1004.4
20260505214131 61 283 0.0 0.0 0.03 0.09 0.09 89 1004.6
20260505213514 61 276 0.0 0.0 0.04 0.09 0.09 89 1004.5
20260505213017 61 238 0.0 0.0 0.04 0.09 0.09 89 1004.4
20260505212531 61 230 0.0 0.0 0.04 0.09 0.09 88 1004.3
20260505212053 61 252 0.0 0.0 0.04 0.09 0.09 87 1004.1
20260505211526 62 249 0.0 3.0 0.04 0.09 0.09 85 1004.2
20260505211035 63 233 0.0 4.0 0.04 0.09 0.09 83 1004.3
20260505210552 63 264 0.0 4.0 0.02 0.07 0.07 81 1004.1
20260505210012 63 227 0.0 3.0 0.02 0.07 0.07 82 1003.9
20260505205535 63 245 0.0 7.0 0.02 0.07 0.07 80 1003.9
20260505205052 64 241 0.0 7.0 0.02 0.07 0.07 77 1004.1
20260505204604 64 228 0.0 9.0 0.01 0.06 0.06 76 1004.0
20260505204124 64 254 0.0 13.0 0.01 0.06 0.06 75 1004.0
20260505203057 66 209 2.0 12.0 0.00 0.05 0.05 69 1004.1
20260505202548 66 227 4.0 11.0 0.00 0.05 0.05 69 1004.0
20260505202049 67 272 4.0 13.0 0.00 0.05 0.05 68 1003.9
20260505201549 67 252 4.0 17.0 0.00 0.05 0.05 67 1003.8
20260505201047 67 238 6.0 17.0 0.00 0.05 0.05 67 1003.8
20260505200547 67 254 6.0 19.0 0.00 0.05 0.05 66 1003.7
20260505200048 67 248 10.0 19.0 0.00 0.05 0.05 67 1003.6
20260505195547 67 241 4.0 14.0 0.00 0.05 0.05 71 1003.6
20260505195047 66 244 0.0 12.0 0.00 0.05 0.05 77 1003.6
20260505194603 65 228 5.0 12.0 0.01 0.05 0.05 76 1003.6
20260505194044 64 219 0.0 7.0 0.03 0.05 0.05 82 1003.6
20260505193543 63 232 0.0 7.0 0.03 0.05 0.05 83 1003.8
20260505193044 63 224 0.0 4.0 0.04 0.05 0.05 86 1004.0
20260505192542 62 223 0.0 4.0 0.04 0.05 0.05 88 1004.1
20260505192041 60 217 0.0 1.0 0.04 0.05 0.05 90 1004.1
20260505191553 60 161 0.0 2.0 0.04 0.05 0.05 90 1004.2
20260505191042 59 215 0.0 2.0 0.04 0.05 0.05 90 1004.3
20260505190541 59 246 0.0 2.0 0.04 0.05 0.05 90 1004.3
20260505190042 59 258 0.0 1.0 0.04 0.05 0.05 90 1004.2
20260505185545 58 244 0.0 5.0 0.04 0.05 0.05 89 1004.0
20260505185040 59 278 0.0 13.0 0.04 0.05 0.05 88 1004.0
20260505184539 59 241 4.0 16.0 0.03 0.04 0.04 87 1004.9
20260505184038 60 321 3.0 20.0 0.01 0.02 0.02 86 1004.6
20260505183537 61 261 7.0 27.0 0.01 0.02 0.02 84 1004.7
20260505183035 64 14 11.0 28.0 0.00 0.01 0.01 74 1004.4
20260505182533 69 266 7.0 20.0 0.00 0.01 0.01 60 1003.9
20260505182033 70 306 9.0 18.0 0.00 0.01 0.01 56 1003.3
20260505181537 70 272 6.0 14.0 0.00 0.01 0.01 56 1003.1
20260505181033 71 259 2.0 14.0 0.00 0.01 0.01 54 1003.0
20260505180533 71 261 2.0 17.0 0.00 0.01 0.01 53 1002.9
20260505180044 72 228 10.0 17.0 0.00 0.01 0.01 51 1002.9
20260505175532 71 241 3.0 11.0 0.00 0.01 0.01 52 1003.0
20260505175031 71 252 3.0 15.0 0.00 0.01 0.01 52 1003.1
20260505174533 71 216 3.0 24.0 0.00 0.01 0.01 52 1003.1
20260505174034 71 241 8.0 24.0 0.00 0.01 0.01 53 1003.1
20260505173533 70 254 3.0 19.0 0.00 0.01 0.01 53 1002.9
20260505173030 70 250 0.0 14.0 0.00 0.01 0.01 54 1003.0
20260505172529 70 233 1.0 15.0 0.00 0.01 0.01 54 1003.2
20260505172029 70 245 2.0 22.0 0.00 0.01 0.01 53 1003.2
20260505171529 70 255 12.0 22.0 0.00 0.01 0.01 52 1003.4
20260505171028 71 271 9.0 20.0 0.00 0.01 0.01 53 1003.4
20260505170527 71 285 2.0 15.0 0.00 0.01 0.01 53 1003.4
20260505170028 71 228 3.0 16.0 0.00 0.01 0.01 54 1003.4
20260505165528 71 286 4.0 20.0 0.00 0.01 0.01 54 1003.3
20260505165027 71 224 7.0 20.0 0.00 0.01 0.01 53 1003.0
20260505164528 71 229 3.0 15.0 0.00 0.01 0.01 54 1003.0
20260505164026 71 242 5.0 15.0 0.00 0.01 0.01 54 1003.0
20260505163525 71 242 3.0 16.0 0.00 0.01 0.01 55 1003.0
20260505163025 71 238 4.0 22.0 0.00 0.01 0.01 54 1002.8
20260505162525 71 172 7.0 22.0 0.00 0.01 0.01 53 1002.8
20260505162024 71 231 4.0 18.0 0.00 0.01 0.01 54 1002.8
20260505161527 71 237 6.0 18.0 0.00 0.01 0.01 54 1002.8
20260505161024 71 241 8.0 19.0 0.00 0.01 0.01 54 1003.0
20260505160524 71 287 9.0 19.0 0.00 0.01 0.01 53 1002.9
20260505153022 71 242 10.0 22.0 0.00 0.01 0.01 53 1003.3
20260505152520 71 255 6.0 19.0 0.00 0.01 0.01 53 1003.1
20260505152022 71 255 6.0 19.0 0.00 0.01 0.01 54 1003.0
20260505151519 71 244 2.0 17.0 0.00 0.01 0.01 55 1003.2
20260505151021 71 200 8.0 17.0 0.00 0.01 0.01 55 1003.2
20260505150520 71 174 7.0 16.0 0.00 0.01 0.01 55 1003.3
20260505140509 69 197 5.0 20.0 0.00 0.01 0.01 58 1002.9
20260505125003 67 124 7.0 22.0 0.00 0.01 0.01 61 1003.4
20260505124602 67 210 6.0 18.0 0.00 0.01 0.01 61 1003.5
20260505124058 66 147 6.0 17.0 0.00 0.01 0.01 62 1003.5
20260505123558 66 167 6.0 16.0 0.00 0.01 0.01 63 1003.5
20260505123102 65 169 4.0 16.0 0.00 0.01 0.01 64 1003.6
20260505122554 65 252 8.0 18.0 0.00 0.01 0.01 64 1003.5
20260505122053 65 268 4.0 18.0 0.00 0.01 0.01 64 1003.5
20260505121621 65 165 5.0 19.0 0.00 0.01 0.01 65 1003.4
20260505121052 65 210 4.0 19.0 0.00 0.01 0.01 65 1003.3
20260505120550 65 200 9.0 28.0 0.00 0.01 0.01 65 1003.3
20260505120050 64 233 12.0 28.0 0.00 0.01 0.01 65 1003.4
20260505115549 64 200 4.0 18.0 0.00 0.01 0.01 66 1003.4
20260505115047 63 218 4.0 17.0 0.00 0.01 0.01 67 1003.5
20260505114547 62 235 2.0 17.0 0.00 0.01 0.01 69 1003.6
20260505114047 62 178 4.0 20.0 0.00 0.01 0.01 70 1003.5
20260505113548 61 204 5.0 13.0 0.00 0.01 0.01 71 1003.3
20260505113049 61 150 3.0 17.0 0.00 0.01 0.01 72 1003.4
20260505112546 61 154 3.0 17.0 0.00 0.01 0.01 73 1003.3
20260505112045 61 245 2.0 12.0 0.00 0.01 0.01 72 1003.2
20260505111549 61 181 3.0 15.0 0.00 0.01 0.01 71 1003.0
20260505111048 61 193 1.0 20.0 0.00 0.01 0.01 71 1003.1
20260505110544 61 166 3.0 17.0 0.00 0.01 0.01 71 1003.0
20260505102042 56 197 0.0 4.0 0.00 0.01 0.01 78 1002.9
20260505101544 56 185 0.0 3.0 0.00 0.01 0.01 78 1003.0
20260505101041 56 186 0.0 12.0 0.00 0.01 0.01 78 1003.0
20260505100541 56 190 0.0 11.0 0.00 0.01 0.01 78 1002.9
20260505100054 56 103 0.0 11.0 0.00 0.01 0.01 78 1002.9
20260505095544 56 124 0.0 13.0 0.00 0.01 0.01 78 1002.9
20260505095046 56 196 0.0 13.0 0.01 0.01 0.01 77 1002.9
20260505094543 56 157 0.0 5.0 0.01 0.01 0.01 77 1003.0
20260505094040 56 174 0.0 6.0 0.01 0.01 0.01 77 1002.9
20260505093541 56 210 0.0 8.0 0.01 0.01 0.01 77 1002.9
20260505093040 56 158 0.0 8.0 0.01 0.01 0.01 78 1002.9
20260505092545 56 145 0.0 12.0 0.01 0.01 0.01 79 1002.9
20260505092039 56 172 0.0 12.0 0.01 0.01 0.01 80 1003.0
20260505091550 56 136 0.0 8.0 0.01 0.01 0.01 81 1003.0
20260505091037 56 199 0.0 4.0 0.01 0.01 0.01 82 1003.0
20260505090537 56 176 0.0 4.0 0.01 0.01 0.01 82 1003.0
20260505090051 56 185 0.0 8.0 0.01 0.01 0.01 82 1003.0
20260505085536 56 142 0.0 8.0 0.01 0.01 0.01 82 1003.0
20260505085036 56 133 0.0 2.0 0.00 0.00 0.00 83 1003.1
20260505084535 57 178 0.0 0.0 0.00 0.00 0.00 83 1003.3
20260505084037 57 164 0.0 0.0 0.00 0.00 0.00 82 1003.3
20260505083532 57 131 0.0 1.0 0.00 0.00 0.00 80 1003.5
20260505083044 58 167 0.0 13.0 0.00 0.00 0.00 77 1003.6
20260505082534 58 169 0.0 13.0 0.00 0.00 0.00 74 1003.9
20260505082030 58 152 0.0 7.0 0.00 0.00 0.00 72 1003.8
20260505081532 58 195 0.0 7.0 0.00 0.00 0.00 72 1003.8
20260505081029 58 172 0.0 3.0 0.00 0.00 0.00 72 1003.6
20260505080533 57 193 0.0 2.0 0.00 0.00 0.00 73 1003.6
20260505080042 57 193 0.0 3.0 0.00 0.00 0.00 74 1003.5
20260505075531 57 178 0.0 7.0 0.00 0.00 0.00 75 1003.5
20260505075034 57 164 0.0 8.0 0.00 0.00 0.00 76 1003.5
20260505074527 58 168 1.0 8.0 0.00 0.00 0.00 78 1003.4
20260505074030 58 131 0.0 11.0 0.00 0.00 0.00 77 1003.4
20260505073526 58 86 1.0 11.0 0.00 0.00 0.00 77 1003.5
20260505073027 58 151 0.0 10.0 0.00 0.00 0.00 77 1003.5
20260505072524 59 156 1.0 13.0 0.00 0.00 0.00 76 1003.6
20260505072022 59 127 1.0 13.0 0.00 0.00 0.00 74 1003.5
20260505071533 60 242 0.0 3.0 0.00 0.00 0.00 73 1003.5
20260505071022 60 161 0.0 9.0 0.00 0.00 0.00 72 1003.4
20260505070520 60 183 1.0 9.0 0.00 0.00 0.00 71 1003.4
20260505070020 60 232 0.0 13.0 0.00 0.00 0.00 71 1003.5
20260505065519 60 176 2.0 13.0 0.00 0.00 0.00 71 1003.5
20260505065019 61 253 2.0 19.0 0.00 0.00 0.00 69 1003.4
20260505064516 61 176 4.0 23.0 0.00 0.00 0.00 67 1003.4
20260505064015 62 202 4.0 23.0 0.00 0.00 0.00 63 1003.1
20260505063514 62 175 4.0 14.0 0.00 0.00 0.00 61 1003.3
20260505063017 62 148 4.0 16.0 0.00 0.00 0.00 60 1003.6
20260505062513 62 248 2.0 16.0 0.00 0.00 0.00 60 1003.6
20260505062013 63 231 4.0 14.0 0.00 0.00 0.00 60 1003.6
20260505061512 63 227 5.0 19.0 0.00 0.00 0.00 60 1003.6
20260505061014 63 152 4.0 19.0 0.00 0.00 0.00 59 1003.4
20260505060509 63 188 2.0 20.0 0.00 0.00 0.00 58 1003.5
20260505060008 62 178 8.0 19.0 0.00 0.00 0.00 58 1003.5
20260505055507 62 180 2.0 15.0 0.00 0.00 0.00 58 1003.5
20260505055007 62 188 0.0 11.0 0.00 0.00 0.00 58 1003.6
20260505054506 62 181 1.0 10.0 0.00 0.00 0.00 58 1003.5
20260505054007 62 154 2.0 10.0 0.00 0.00 0.00 58 1003.6
20260505053505 62 155 1.0 9.0 0.00 0.00 0.00 57 1003.5
20260505053006 62 258 3.0 9.0 0.00 0.00 0.00 57 1003.5
20260505052504 62 172 1.0 12.0 0.00 0.00 0.00 57 1003.5
20260505052004 62 148 4.0 12.0 0.00 0.00 0.00 57 1003.4
20260505051503 62 156 2.0 13.0 0.00 0.00 0.00 57 1003.4
20260505051003 62 148 3.0 16.0 0.00 0.00 0.00 57 1003.5
20260505050500 62 167 6.0 16.0 0.00 0.00 0.00 56 1003.5
20260505041605 61 209 0.0 10.0 0.00 0.00 0.00 56 1003.6
20260505041053 61 203 2.0 10.0 0.00 0.00 0.00 55 1003.5
20260505040553 61 203 0.0 13.0 0.00 0.00 0.00 55 1003.5
20260505040051 62 162 3.0 16.0 0.00 0.00 0.00 55 1003.4
20260505035550 61 159 4.0 16.0 0.00 0.00 0.00 55 1003.4
20260505035052 62 126 2.0 15.0 0.00 0.00 0.00 55 1003.3
20260505034551 62 194 3.0 15.0 0.00 0.00 0.00 54 1003.3
20260505034051 62 168 2.0 13.0 0.00 0.00 0.00 54 1003.4
20260505033551 62 174 2.0 13.0 0.00 0.00 0.00 54 1003.4
20260505033051 61 223 2.0 10.0 0.00 0.00 0.00 54 1003.4
20260505032549 62 231 1.0 11.0 0.00 0.00 0.00 54 1003.5
20260505032052 62 193 2.0 11.0 0.00 0.00 0.00 54 1003.4
20260505031550 62 168 2.0 10.0 0.00 0.00 0.00 54 1003.5
20260505031048 62 121 1.0 12.0 0.00 0.00 0.00 54 1003.5
20260505030549 62 175 1.0 12.0 0.00 0.00 0.00 53 1003.5
20260505030058 62 248 0.0 10.0 0.00 0.00 0.00 53 1003.6
20260505025549 62 129 3.0 12.0 0.00 0.00 0.00 53 1003.5
20260505025049 62 148 1.0 13.0 0.00 0.00 0.00 53 1003.5
20260505024548 62 132 2.0 13.0 0.00 0.00 0.00 53 1003.6
20260505024047 62 117 1.0 10.0 0.00 0.00 0.00 53 1003.6
20260505023547 62 159 2.0 10.0 0.00 0.00 0.00 53 1003.6
20260505023048 62 159 0.0 13.0 0.00 0.00 0.00 53 1003.6
20260505022548 62 190 2.0 13.0 0.00 0.00 0.00 52 1003.7
20260505022047 62 226 0.0 10.0 0.00 0.00 0.00 52 1003.7
20260505021554 62 242 0.0 10.0 0.00 0.00 0.00 52 1003.7
20260505021046 62 83 0.0 13.0 0.00 0.00 0.00 52 1003.6
20260505020546 62 154 1.0 8.0 0.00 0.00 0.00 52 1003.7
20260505020055 62 151 0.0 4.0 0.00 0.00 0.00 52 1003.6
20260505015546 62 138 0.0 7.0 0.00 0.00 0.00 52 1003.6
20260505015049 62 133 0.0 7.0 0.00 0.00 0.00 51 1003.7
20260505014546 62 143 0.0 5.0 0.00 0.00 0.00 51 1003.7
20260505014045 62 157 0.0 10.0 0.00 0.00 0.00 50 1003.7
20260505013551 62 164 0.0 10.0 0.00 0.00 0.00 49 1003.7
20260505013047 62 103 0.0 4.0 0.00 0.00 0.00 49 1003.7